Location: Unspecified
(0.0000°N, 0.0000°E)
Time: 22:49:06
(UTC+00:00)

Tiangong - Pass Details

Date: 22 January 2022
Orbit: 381 x 387 km, 41.5° (Epoch: 27 January)

Event Time Altitude Azimuth Distance (km) Brightness Sun altitude
Exits shadow 05:16:04 13° 341° (NNW) 1,225 3.2 -13.0°
Maximum altitude 05:18:30 33° 44° (NE) 662 2.5 -12.5°
Drops below altitude 10° 05:21:22 10° 110° (ESE) 1,389 5.4 -11.8°
Sets 05:23:33 0° 120° (ESE) 2,243 6.9 -11.3°
